[[{"header":{"parameterUnit":"m.s-1","parameterCategory":2,"la1":30.2992,"la2":30.254,"lo1":-89.0895,"lo2":-89.0443,"dy":0.0025,"dx":0.0025,"nx":19,"ny":19,"refTime":"2026-04-16T09:00:00:Z","depth":"0","parameterNumber":2,"parameterNumberName":"U-component_of_CURRENTS"},"data":[0,0,0,0.4389,0.4392,0.452,0.4521,0.4682,0.4684,0,0,0,0,0,0,0,0,0,0,0,0.4338,0.4339,0.4389,0.4392,0.452,0.4521,0.4682,0.4684,0,0,0,0,0,0,0,0,0,0,0,0.4338,0.4339,0.434,0.4393,0.452,0.4521,0.4682,0.4585,0,0,0,0,0,0,0,0,0,0,0.446,0.4402,0.4339,0.434,0.4394,0.452,0.4521,0.458,0.4591,0.4625,0,0.4647,0,0.4675,0.4695,0.4696,0,0,0,0.4388,0.4393,0.4443,0.434,0.4395,0.452,0.4461,0.4586,0.4598,0.4639,0.4649,0.4655,0.4678,0.4696,0.4697,0.4908,0.4909,0,0,0.4381,0.4349,0.4435,0.4451,0.4432,0.4457,0.4465,0.4593,0.4598,0.465,0.466,0.4681,0.4697,0.4698,0.4907,0.4908,0,0,0,0.4363,0.4343,0.439,0.4444,0.4471,0.4461,0.4471,0.4592,0.4612,0.4661,0.4682,0.4698,0.47,0.4906,0.4907,0.4893,0,0,0,0.4359,0.4334,0.4386,0.4367,0.4469,0.4531,0.4466,0.4603,0.4619,0.4682,0.4698,0.4702,0.4904,0.4906,0.489,0.49,0,0,0,0.4332,0.4331,0.435,0.4365,0.4425,0.453,0.4557,0.4607,0.4632,0.4696,0.4702,0.4904,0.4906,0.4888,0.4897,0.4914,0,0,0,0.4288,0.4307,0.4349,0.4397,0.4424,0.4527,0.4556,0.4637,0.4693,0.4699,0.4905,0.4907,0.4888,0.4895,0.4912,0.474,0.4735,0,0,0.4285,0.4305,0.4342,0.4383,0.4456,0.4509,0.4612,0.4695,0.4746,0.4859,0.4864,0.4891,0.4897,0.4914,0.4887,0.4876,0,0,0,0.4325,0.4332,0.437,0.4428,0.4519,0.4596,0.4684,0.4741,0.4853,0.4793,0.4947,0.4953,0.4962,0.4857,0.485,0.4697,0.4919,0.4918,0.4918,0.4228,0.4309,0.4353,0.445,0.4527,0.4669,0.4757,0.4858,0.4891,0.4952,0.4981,0.5044,0.4934,0.4926,0.4772,0.5021,0.5021,0.5021,0.5021,0.4189,0.4194,0.4324,0.4385,0.4511,0.4605,0.481,0.4875,0.5034,0.5036,0.5044,0.4898,0.4916,0.4755,0.5021,0.5021,0.5021,0.5021,0.5021,0.408,0.4082,0.4164,0.4269,0.4383,0.4555,0.4692,0.4879,0.5008,0.5075,0.4958,0.4955,0.4777,0.5067,0.5067,0.5067,0.5067,0.5067,0.5067,0.3892,0.3977,0.4003,0.4144,0.4201,0.435,0.4631,0.4748,0.4885,0.4958,0.4956,0.4782,0.5058,0.5014,0.5069,0.5069,0.5069,0.5068,0.5068,0.3667,0.3754,0.3772,0.3829,0.3994,0.4017,0.433,0.4503,0.4682,0.4694,0.4622,0.4894,0.4884,0.4888,0.4841,0.4849,0.4849,0.4849,0.4849,0.349,0.3551,0.3535,0.3589,0.3699,0.3848,0.3808,0.4008,0.426,0.4308,0.445,0.4362,0.4378,0.4336,0.4353,0.4295,0.4165,0.4164,0.4163,0.3318,0.3362,0.3278,0.3411,0.3533,0.3599,0.3426,0.34,0.3808,0.4128,0.4275,0.4304,0.4173,0.421,0.4144,0.418,0.4087,0,0]},{"header":{"parameterUnit":"m.s-1","parameterCategory":2,"la1":30.2992,"la2":30.254,"lo1":-89.0895,"lo2":-89.0443,"dy":0.0025,"dx":0.0025,"nx":19,"ny":19,"refTime":"2026-04-16T09:00:00:Z","depth":"0","parameterNumber":3,"parameterNumberName":"V-component_of_CURRENTS"},"data":[0,0,0,0.0523,0.0522,0.0498,0.0498,0.0421,0.042,0,0,0,0,0,0,0,0,0,0,0,0.0538,0.0538,0.0523,0.0522,0.0498,0.0498,0.0421,0.042,0,0,0,0,0,0,0,0,0,0,0,0.0538,0.0538,0.0538,0.0522,0.0498,0.0498,0.0421,0.0451,0,0,0,0,0,0,0,0,0,0,0.0481,0.0498,0.0538,0.0538,0.0522,0.0498,0.0498,0.0453,0.0449,0.0418,0,0.0419,0,0.0412,0.0413,0.0413,0,0,0,0.0524,0.0502,0.0496,0.0538,0.0521,0.0498,0.0509,0.0451,0.0447,0.0412,0.0418,0.0415,0.0411,0.0413,0.0412,0.0431,0.0431,0,0,0.0525,0.0529,0.0499,0.0493,0.052,0.051,0.0508,0.0449,0.0445,0.0418,0.0414,0.0409,0.0412,0.0412,0.043,0.0431,0,0,0,0.0528,0.053,0.0527,0.0497,0.0493,0.0509,0.0507,0.0448,0.0447,0.0413,0.0409,0.0412,0.0411,0.0429,0.043,0.0576,0,0,0,0.0529,0.0532,0.0528,0.053,0.0494,0.0475,0.0507,0.0452,0.0445,0.0409,0.0412,0.041,0.0428,0.0429,0.057,0.0694,0,0,0,0.0538,0.0532,0.0532,0.053,0.0518,0.0476,0.0472,0.045,0.0441,0.0413,0.0409,0.0427,0.0429,0.0565,0.0683,0.0769,0,0,0,0.054,0.0581,0.0532,0.0576,0.0519,0.0556,0.0473,0.0478,0.0464,0.0411,0.0428,0.043,0.0563,0.0676,0.0762,0.0861,0.0902,0,0,0.0604,0.0588,0.0618,0.0575,0.0638,0.0559,0.063,0.0562,0.0485,0.0441,0.0442,0.0572,0.0682,0.0768,0.0985,0.1023,0,0,0,0.0647,0.0672,0.0682,0.0699,0.0694,0.0723,0.065,0.0631,0.0604,0.0485,0.0575,0.0641,0.069,0.0734,0.0764,0.0567,0.044,0.044,0.044,0.0741,0.0746,0.0814,0.0826,0.0846,0.083,0.0859,0.0816,0.0702,0.072,0.076,0.0935,0.0983,0.1007,0.0802,0.0727,0.0728,0.0728,0.0728,0.0856,0.0904,0.092,0.0992,0.1009,0.1059,0.106,0.1009,0.1046,0.0917,0.0954,0.0887,0.1049,0.0818,0.0738,0.0736,0.0735,0.0734,0.0733,0.0918,0.095,0.0987,0.1092,0.1197,0.1218,0.137,0.1316,0.122,0.1269,0.1263,0.1261,0.1059,0.1254,0.1256,0.1256,0.1257,0.1258,0.1259,0.0965,0.1007,0.1107,0.1214,0.1313,0.1461,0.1559,0.1622,0.1596,0.1486,0.1485,0.1115,0.1096,0.1076,0.1273,0.1271,0.1269,0.1267,0.1266,0.1038,0.1065,0.1209,0.1315,0.1558,0.1779,0.1862,0.1993,0.1988,0.1988,0.1483,0.158,0.1551,0.1525,0.1515,0.1814,0.1814,0.1814,0.1814,0.1089,0.1114,0.1316,0.15,0.1744,0.1933,0.2229,0.2273,0.198,0.1752,0.1594,0.1445,0.1432,0.1382,0.136,0.134,0.1588,0.1587,0.1586,0.114,0.1205,0.1355,0.1545,0.1828,0.2118,0.2385,0.2439,0.1929,0.1548,0.1305,0.1315,0.1055,0.105,0.093,0.0914,0.0865,0,0]}],[{"header":{"parameterUnit":"m.s-1","parameterCategory":2,"la1":30.2992,"la2":30.254,"lo1":-89.0895,"lo2":-89.0443,"dy":0.0025,"dx":0.0025,"nx":19,"ny":19,"refTime":"2026-04-16T09:00:00:Z","depth":"2","parameterNumber":2,"parameterNumberName":"U-component_of_CURRENTS"},"data":[0,0,0,0.3516,0.352,0.3675,0.3676,0.3761,0.3761,0,0,0,0,0,0,0,0,0,0,0,0.3416,0.3417,0.3516,0.3521,0.3675,0.3676,0.376,0.3761,0,0,0,0,0,0,0,0,0,0,0,0.3416,0.3417,0.3417,0.3521,0.3675,0.3676,0.376,0.3667,0,0,0,0,0,0,0,0,0,0,0.3528,0.3497,0.3417,0.3417,0.3522,0.3675,0.3676,0.3663,0.3673,0.3664,0,0.3671,0,0.3745,0.3766,0.3766,0,0,0,0.3502,0.349,0.3505,0.3417,0.3524,0.3675,0.36,0.3669,0.368,0.3675,0.3673,0.3679,0.3747,0.3766,0.3767,0.3847,0.3847,0,0,0.3493,0.3475,0.3498,0.3511,0.3541,0.3595,0.3605,0.3677,0.3691,0.3674,0.3683,0.3748,0.3767,0.3768,0.3847,0.3847,0,0,0,0.3481,0.3469,0.3485,0.3505,0.3558,0.36,0.3612,0.3687,0.3684,0.3684,0.3749,0.3767,0.3768,0.3846,0.3847,0.3939,0,0,0,0.3475,0.3464,0.348,0.3475,0.3557,0.3654,0.362,0.3678,0.3691,0.3748,0.3767,0.3769,0.3846,0.3847,0.3936,0.394,0,0,0,0.3414,0.346,0.3463,0.3473,0.3552,0.3654,0.3657,0.3682,0.3731,0.3766,0.3769,0.3846,0.3846,0.3933,0.3936,0.3999,0,0,0,0.3409,0.3421,0.3462,0.3501,0.355,0.3634,0.3658,0.3738,0.377,0.3768,0.3846,0.3847,0.3932,0.3933,0.3996,0.379,0.3788,0,0,0.3419,0.3423,0.3443,0.3484,0.355,0.3613,0.3716,0.3771,0.3776,0.381,0.3813,0.3937,0.3935,0.3998,0.3837,0.3833,0,0,0,0.3444,0.3435,0.3463,0.352,0.3597,0.3678,0.3769,0.382,0.3895,0.3805,0.3927,0.3922,0.396,0.3829,0.3826,0.3851,0.385,0.385,0.385,0.3382,0.3434,0.3464,0.3528,0.3603,0.3743,0.3824,0.3903,0.3923,0.398,0.3993,0.4088,0.3949,0.3945,0.4004,0.4004,0.4005,0.4005,0.4005,0.3361,0.3363,0.3452,0.3504,0.361,0.3714,0.3891,0.3959,0.4107,0.4079,0.4114,0.3924,0.3947,0.4012,0.4011,0.401,0.4009,0.4009,0.4008,0.3282,0.3294,0.3346,0.3448,0.3551,0.3706,0.3842,0.401,0.414,0.4208,0.4063,0.4058,0.4142,0.424,0.424,0.4241,0.4241,0.4241,0.4241,0.3191,0.3239,0.3257,0.338,0.3438,0.3591,0.3838,0.3949,0.4065,0.4114,0.4112,0.4167,0.4159,0.4155,0.4246,0.4246,0.4245,0.4244,0.4244,0.308,0.311,0.3127,0.3168,0.3305,0.3326,0.3608,0.3746,0.3915,0.3908,0.4064,0.4067,0.4012,0.4009,0.3999,0.4046,0.4046,0.4046,0.4046,0.2979,0.3005,0.2976,0.2992,0.3071,0.3183,0.3152,0.3288,0.3555,0.3645,0.3662,0.3546,0.3563,0.3476,0.3486,0.3463,0.3371,0.3369,0.3368,0.2897,0.2904,0.2826,0.2859,0.2929,0.2961,0.282,0.2742,0.2974,0.3342,0.3548,0.4,0.3872,0.3882,0.378,0.3784,0.3759,0,0]},{"header":{"parameterUnit":"m.s-1","parameterCategory":2,"la1":30.2992,"la2":30.254,"lo1":-89.0895,"lo2":-89.0443,"dy":0.0025,"dx":0.0025,"nx":19,"ny":19,"refTime":"2026-04-16T09:00:00:Z","depth":"2","parameterNumber":3,"parameterNumberName":"V-component_of_CURRENTS"},"data":[0,0,0,0.0322,0.0322,0.0294,0.0294,0.0203,0.0202,0,0,0,0,0,0,0,0,0,0,0,0.0337,0.0337,0.0322,0.0322,0.0294,0.0294,0.0203,0.0202,0,0,0,0,0,0,0,0,0,0,0,0.0337,0.0337,0.0337,0.0322,0.0294,0.0294,0.0203,0.0237,0,0,0,0,0,0,0,0,0,0,0.0271,0.0293,0.0337,0.0337,0.0322,0.0294,0.0294,0.0239,0.0235,0.0201,0,0.0204,0,0.0199,0.0195,0.0195,0,0,0,0.0318,0.0297,0.0289,0.0337,0.0322,0.0294,0.0305,0.0237,0.0232,0.0195,0.0203,0.02,0.0197,0.0194,0.0194,0.0161,0.0161,0,0,0.032,0.0327,0.0293,0.0287,0.0322,0.0306,0.0305,0.0235,0.0232,0.0203,0.0198,0.0196,0.0194,0.0193,0.016,0.0161,0,0,0,0.0327,0.0329,0.0324,0.029,0.0288,0.0306,0.0304,0.0235,0.0234,0.0197,0.0195,0.0193,0.0192,0.016,0.0161,0.0311,0,0,0,0.0327,0.0333,0.0325,0.0328,0.029,0.0268,0.0305,0.0239,0.0231,0.0195,0.0193,0.0191,0.016,0.016,0.0306,0.0401,0,0,0,0.0337,0.0334,0.0333,0.0329,0.0318,0.027,0.0264,0.0237,0.0229,0.0195,0.019,0.0159,0.016,0.0302,0.0392,0.0452,0,0,0,0.0341,0.0372,0.0334,0.0366,0.0318,0.034,0.0265,0.0262,0.0242,0.0192,0.016,0.0161,0.03,0.0386,0.0447,0.0475,0.0504,0,0,0.039,0.0378,0.0399,0.0365,0.0416,0.0343,0.039,0.0322,0.0241,0.0176,0.0176,0.0308,0.0391,0.0451,0.0533,0.056,0,0,0,0.0422,0.044,0.0447,0.0463,0.0455,0.047,0.0402,0.0373,0.0328,0.0233,0.0286,0.0334,0.0367,0.0371,0.0392,0.0165,0.0165,0.0165,0.0165,0.0501,0.0503,0.0557,0.0565,0.0581,0.0552,0.056,0.05,0.0406,0.0409,0.0439,0.0568,0.0574,0.059,0.0401,0.0402,0.0403,0.0403,0.0403,0.06,0.0641,0.0651,0.0708,0.0714,0.0749,0.0718,0.0668,0.0666,0.0562,0.0585,0.0509,0.0623,0.0415,0.0413,0.0411,0.041,0.0409,0.0408,0.0659,0.0686,0.0712,0.0803,0.0883,0.0889,0.0991,0.0924,0.082,0.0851,0.0802,0.0798,0.0678,0.0844,0.0845,0.0845,0.0846,0.0846,0.0847,0.0718,0.0746,0.0826,0.0915,0.0997,0.1116,0.1158,0.1173,0.1096,0.0987,0.0985,0.0717,0.0702,0.0701,0.0858,0.0856,0.0854,0.0853,0.0853,0.0803,0.0809,0.0934,0.1016,0.1217,0.1381,0.1417,0.1432,0.1387,0.1343,0.1042,0.1034,0.0988,0.0968,0.0972,0.119,0.119,0.119,0.119,0.086,0.0872,0.1042,0.1188,0.1381,0.151,0.1692,0.1646,0.1441,0.1274,0.127,0.1174,0.1159,0.1114,0.1091,0.1093,0.1343,0.1343,0.1343,0.0928,0.0972,0.1101,0.1237,0.1456,0.1655,0.1821,0.1775,0.1444,0.1348,0.1278,0.1204,0.1045,0.1028,0.0936,0.0909,0.0902,0,0]}],[{"header":{"parameterUnit":"m.s-1","parameterCategory":2,"la1":30.2992,"la2":30.254,"lo1":-89.0895,"lo2":-89.0443,"dy":0.0025,"dx":0.0025,"nx":19,"ny":19,"refTime":"2026-04-16T09:00:00:Z","depth":"4","parameterNumber":2,"parameterNumberName":"U-component_of_CURRENTS"},"data":[0,0,0,0.2088,0.2091,0.2242,0.2243,0.233,0.233,0,0,0,0,0,0,0,0,0,0,0,0.2059,0.206,0.2088,0.2091,0.2242,0.2243,0.233,0.233,0,0,0,0,0,0,0,0,0,0,0,0.2058,0.206,0.2062,0.2092,0.2242,0.2243,0.233,0.2243,0,0,0,0,0,0,0,0,0,0,0.211,0.21,0.2059,0.2062,0.2093,0.2242,0.2243,0.224,0.2249,0.223,0,0.2277,0,0.2292,0.2333,0.2333,0,0,0,0.2096,0.2094,0.2127,0.2062,0.2094,0.2241,0.2175,0.2246,0.2255,0.224,0.2278,0.2281,0.2293,0.2334,0.2334,0.2427,0.2427,0,0,0.2088,0.2086,0.2121,0.2133,0.2161,0.217,0.218,0.2253,0.2276,0.2278,0.2284,0.2295,0.2334,0.2334,0.2426,0.2427,0,0,0,0.2061,0.208,0.2114,0.213,0.2158,0.2175,0.2186,0.2273,0.2284,0.2285,0.2296,0.2334,0.2335,0.2425,0.2426,0.2519,0,0,0,0.2056,0.2064,0.2111,0.2111,0.2158,0.2232,0.2204,0.228,0.2288,0.2295,0.2334,0.2335,0.2425,0.2426,0.2515,0.2532,0,0,0,0.2047,0.2062,0.2087,0.2111,0.2171,0.2231,0.2248,0.2283,0.2293,0.2333,0.2335,0.2424,0.2426,0.2511,0.2526,0.2591,0,0,0,0.2027,0.206,0.2088,0.2127,0.2169,0.224,0.2248,0.2321,0.2362,0.2334,0.2425,0.2426,0.251,0.2523,0.2588,0.2266,0,0,0,0.2042,0.2063,0.2078,0.2105,0.2163,0.2217,0.2295,0.2363,0.2375,0.2392,0.2395,0.2516,0.2526,0.2591,0.2364,0,0,0,0,0.2062,0.2084,0.2108,0.2153,0.2207,0.23,0.2359,0.24,0.2489,0.2407,0.2523,0.2526,0.2564,0.2365,0.2434,0.2434,0.2434,0.2434,0.2433,0.2082,0.2095,0.2128,0.2175,0.2241,0.236,0.2442,0.251,0.2516,0.2586,0.2608,0.2725,0.2519,0.2626,0.2627,0.2627,0.2628,0.2628,0.2628,0.207,0.2067,0.2133,0.218,0.2289,0.2385,0.2528,0.2593,0.2714,0.2691,0.2726,0.2483,0.2637,0.2636,0.2634,0.2633,0.2632,0.2632,0.2631,0.2034,0.2032,0.209,0.2166,0.2296,0.2436,0.2558,0.27,0.2786,0.2849,0.2652,0.2786,0.2772,0.2893,0.2894,0.2894,0.2894,0.2895,0.2895,0.1963,0.2008,0.2049,0.2157,0.223,0.2384,0.261,0.2686,0.2822,0.2707,0.2892,0.2813,0.2805,0.2786,0.2901,0.29,0.2899,0.2899,0.2898,0.1891,0.1942,0.1966,0.2029,0.2154,0.2226,0.2482,0.2572,0.2639,0.2612,0.2624,0.2636,0.2569,0.2567,0.2537,0.2582,0.2578,0.2575,0,0.1849,0.1868,0.1885,0.1909,0.1948,0.2108,0.2123,0.2262,0.2391,0.231,0.2632,0.2641,0.2648,0.2567,0.2559,0.252,0,0,0,0.1817,0.1818,0.1797,0.1811,0.1821,0.1915,0.2112,0.2091,0.2368,0.2353,0.2481,0.2506,0.2741,0.2919,0.2845,0.2835,0.2801,0,0]},{"header":{"parameterUnit":"m.s-1","parameterCategory":2,"la1":30.2992,"la2":30.254,"lo1":-89.0895,"lo2":-89.0443,"dy":0.0025,"dx":0.0025,"nx":19,"ny":19,"refTime":"2026-04-16T09:00:00:Z","depth":"4","parameterNumber":3,"parameterNumberName":"V-component_of_CURRENTS"},"data":[0,0,0,0.024,0.024,0.0229,0.0229,0.0171,0.0171,0,0,0,0,0,0,0,0,0,0,0,0.025,0.025,0.024,0.024,0.0229,0.0229,0.0171,0.0171,0,0,0,0,0,0,0,0,0,0,0,0.025,0.025,0.025,0.024,0.0229,0.0229,0.0172,0.019,0,0,0,0,0,0,0,0,0,0,0.0206,0.0219,0.025,0.025,0.024,0.0229,0.0229,0.0192,0.0189,0.0164,0,0.017,0,0.0165,0.0166,0.0166,0,0,0,0.0238,0.0222,0.0221,0.025,0.024,0.0229,0.0233,0.0191,0.0188,0.0161,0.0169,0.0167,0.0164,0.0165,0.0165,0.014,0.0141,0,0,0.0239,0.0243,0.0223,0.0219,0.0245,0.0234,0.0233,0.0189,0.0187,0.0169,0.0166,0.0163,0.0165,0.0164,0.014,0.014,0,0,0,0.0242,0.0243,0.0244,0.0221,0.0221,0.0233,0.0233,0.0189,0.0191,0.0165,0.0163,0.0165,0.0164,0.014,0.014,0.0232,0,0,0,0.0242,0.0245,0.0244,0.0246,0.0222,0.021,0.0234,0.0194,0.0189,0.0163,0.0165,0.0163,0.0139,0.014,0.0229,0.0284,0,0,0,0.0249,0.0245,0.0247,0.0246,0.0241,0.0211,0.0209,0.0193,0.0187,0.0166,0.0163,0.0139,0.014,0.0226,0.0279,0.0293,0,0,0,0.0248,0.027,0.0248,0.0269,0.0242,0.0259,0.021,0.021,0.0199,0.0164,0.014,0.014,0.0226,0.0275,0.029,0.0317,0,0,0,0.0279,0.0273,0.0287,0.0268,0.0305,0.026,0.0287,0.0246,0.0196,0.015,0.0149,0.023,0.0278,0.0292,0.0351,0,0,0,0,0.0299,0.0316,0.0322,0.0335,0.0331,0.0344,0.0299,0.0272,0.0242,0.0191,0.0216,0.0244,0.025,0.0256,0.0143,0.0143,0.0143,0.0143,0.0143,0.0353,0.0356,0.0394,0.0405,0.0416,0.0395,0.0393,0.0345,0.0289,0.0287,0.0308,0.037,0.038,0.0286,0.0287,0.0287,0.0288,0.0288,0.0288,0.0417,0.0445,0.0457,0.0501,0.0509,0.0532,0.049,0.0452,0.0426,0.0374,0.0374,0.034,0.0297,0.0295,0.0294,0.0293,0.0292,0.0292,0.0291,0.0453,0.0472,0.0497,0.0566,0.063,0.0632,0.0675,0.0618,0.0522,0.053,0.05,0.0425,0.0428,0.052,0.0521,0.0521,0.0521,0.0522,0.0522,0.0481,0.0508,0.0573,0.0646,0.0712,0.0791,0.0791,0.0769,0.0675,0.0615,0.0557,0.0448,0.0441,0.0439,0.0527,0.0526,0.0525,0.0525,0.0524,0.0532,0.0545,0.0641,0.0708,0.0856,0.091,0.0925,0.0865,0.0832,0.076,0.0637,0.063,0.0595,0.0584,0.0586,0.072,0.0721,0.0722,0,0.0569,0.058,0.0711,0.0818,0.0935,0.0981,0.0987,0.0955,0.082,0.0803,0.0794,0.0657,0.065,0.0611,0.0602,0.0606,0,0,0,0.0615,0.0649,0.0746,0.0843,0.0968,0.0988,0.0995,0.0958,0.0851,0.0826,0.0739,0.0734,0.0659,0.0542,0.047,0.0461,0.0455,0,0]}]]